Year,Month,Day,Hour,Minute,Value (Times are PST for temperature in C)
2015,05,28,00,00,16.70
2015,05,28,00,01,16.60
2015,05,28,00,02,16.60
2015,05,28,00,03,16.60
2015,05,28,00,04,16.60
2015,05,28,00,05,16.60
2015,05,28,00,06,16.60
2015,05,28,00,07,16.60
2015,05,28,00,08,16.60
2015,05,28,00,09,16.50
2015,05,28,00,10,16.50
2015,05,28,00,11,16.50
2015,05,28,00,12,16.50
2015,05,28,00,13,16.50
2015,05,28,00,14,16.50
2015,05,28,00,15,16.50
2015,05,28,00,16,16.50
2015,05,28,00,17,16.40
2015,05,28,00,18,16.40
2015,05,28,00,19,16.40
2015,05,28,00,20,16.40
2015,05,28,00,21,16.40
2015,05,28,00,22,16.40
2015,05,28,00,23,16.40
2015,05,28,00,24,16.40
2015,05,28,00,25,16.40
2015,05,28,00,26,16.40
2015,05,28,00,27,16.30
2015,05,28,00,28,16.30
2015,05,28,00,29,16.30
2015,05,28,00,30,16.30
2015,05,28,00,31,16.30
2015,05,28,00,32,16.30
2015,05,28,00,33,16.30
2015,05,28,00,34,16.30
2015,05,28,00,35,16.20
2015,05,28,00,36,16.20
2015,05,28,00,37,16.20
2015,05,28,00,38,16.20
2015,05,28,00,39,16.20
2015,05,28,00,40,16.20
2015,05,28,00,41,16.20
2015,05,28,00,42,16.20
2015,05,28,00,43,16.10
2015,05,28,00,44,16.10
2015,05,28,00,45,16.10
2015,05,28,00,46,16.10
2015,05,28,00,47,16.10
2015,05,28,00,48,16.10
2015,05,28,00,49,16.10
2015,05,28,00,50,16.00
2015,05,28,00,51,16.00
2015,05,28,00,52,16.00
2015,05,28,00,53,16.00
2015,05,28,00,54,15.90
2015,05,28,00,55,15.90
2015,05,28,00,56,15.90
2015,05,28,00,57,15.90
2015,05,28,00,58,15.80
2015,05,28,00,59,15.80
2015,05,28,01,00,15.80
2015,05,28,01,01,15.80
2015,05,28,01,02,15.70
2015,05,28,01,03,15.70
2015,05,28,01,04,15.70
2015,05,28,01,05,15.70
2015,05,28,01,06,15.60
2015,05,28,01,07,15.60
2015,05,28,01,08,15.60
2015,05,28,01,09,15.60
2015,05,28,01,10,15.60
2015,05,28,01,11,15.60
2015,05,28,01,12,15.50
2015,05,28,01,13,15.50
2015,05,28,01,14,15.50
2015,05,28,01,15,15.50
2015,05,28,01,16,15.50
2015,05,28,01,17,15.50
2015,05,28,01,18,15.50
2015,05,28,01,19,15.50
2015,05,28,01,20,15.50
2015,05,28,01,21,15.50
2015,05,28,01,22,15.40
2015,05,28,01,23,15.40
2015,05,28,01,24,15.40
2015,05,28,01,25,15.40
2015,05,28,01,26,15.30
2015,05,28,01,27,15.30
2015,05,28,01,28,15.30
2015,05,28,01,29,15.30
2015,05,28,01,30,15.30
2015,05,28,01,31,15.30
2015,05,28,01,32,15.30
2015,05,28,01,33,15.20
2015,05,28,01,34,15.20
2015,05,28,01,35,15.20
2015,05,28,01,36,15.20
2015,05,28,01,37,15.20
2015,05,28,01,38,15.20
2015,05,28,01,39,15.10
2015,05,28,01,40,15.10
2015,05,28,01,41,15.10
2015,05,28,01,42,15.10
2015,05,28,01,43,15.00
2015,05,28,01,44,15.00
2015,05,28,01,45,14.90
2015,05,28,01,46,14.90
2015,05,28,01,47,14.90
2015,05,28,01,48,14.90
2015,05,28,01,49,14.90
2015,05,28,01,50,14.90
2015,05,28,01,51,14.90
2015,05,28,01,52,14.90
2015,05,28,01,53,14.90
2015,05,28,01,54,14.90
2015,05,28,01,55,14.90
2015,05,28,01,56,14.90
2015,05,28,01,57,14.90
2015,05,28,01,58,14.80
2015,05,28,01,59,14.80
2015,05,28,02,00,14.80
2015,05,28,02,01,14.80
2015,05,28,02,02,14.80
2015,05,28,02,03,14.80
2015,05,28,02,04,14.80
2015,05,28,02,05,14.80
2015,05,28,02,06,14.80
2015,05,28,02,07,14.80
2015,05,28,02,08,14.80
2015,05,28,02,09,14.70
2015,05,28,02,10,14.70
2015,05,28,02,11,14.70
2015,05,28,02,12,14.70
2015,05,28,02,13,14.70
2015,05,28,02,14,14.70
2015,05,28,02,15,14.70
2015,05,28,02,16,14.70
2015,05,28,02,17,14.60
2015,05,28,02,18,14.60
2015,05,28,02,19,14.60
2015,05,28,02,20,14.60
2015,05,28,02,21,14.60
2015,05,28,02,22,14.50
2015,05,28,02,23,14.50
2015,05,28,02,24,14.50
2015,05,28,02,25,14.50
2015,05,28,02,26,14.50
2015,05,28,02,27,14.40
2015,05,28,02,28,14.40
2015,05,28,02,29,14.40
2015,05,28,02,30,14.40
2015,05,28,02,31,14.40
2015,05,28,02,32,14.30
2015,05,28,02,33,14.30
2015,05,28,02,34,14.30
2015,05,28,02,35,14.30
2015,05,28,02,36,14.30
2015,05,28,02,37,14.30
2015,05,28,02,38,14.20
2015,05,28,02,39,14.20
2015,05,28,02,40,14.20
2015,05,28,02,41,14.20
2015,05,28,02,42,14.20
2015,05,28,02,43,14.20
2015,05,28,02,44,14.20
2015,05,28,02,45,14.20
2015,05,28,02,46,14.10
2015,05,28,02,47,14.10
2015,05,28,02,48,14.10
2015,05,28,02,49,14.10
2015,05,28,02,50,14.10
2015,05,28,02,51,14.10
2015,05,28,02,52,14.00
2015,05,28,02,53,14.00
2015,05,28,02,54,14.00
2015,05,28,02,55,14.00
2015,05,28,02,56,14.00
2015,05,28,02,57,14.00
2015,05,28,02,58,13.90
2015,05,28,02,59,13.90
2015,05,28,03,00,13.90
2015,05,28,03,01,13.90
2015,05,28,03,02,13.90
2015,05,28,03,03,13.90
2015,05,28,03,04,13.90
2015,05,28,03,05,13.90
2015,05,28,03,06,13.80
2015,05,28,03,07,13.80
2015,05,28,03,08,13.80
2015,05,28,03,09,13.80
2015,05,28,03,10,13.80
2015,05,28,03,11,13.70
2015,05,28,03,12,13.70
2015,05,28,03,13,13.70
2015,05,28,03,14,13.70
2015,05,28,03,15,13.70
2015,05,28,03,16,13.70
2015,05,28,03,17,13.60
2015,05,28,03,18,13.60
2015,05,28,03,19,13.60
2015,05,28,03,20,13.60
2015,05,28,03,21,13.60
2015,05,28,03,22,13.60
2015,05,28,03,23,13.60
2015,05,28,03,24,13.50
2015,05,28,03,25,13.50
2015,05,28,03,26,13.50
2015,05,28,03,27,13.50
2015,05,28,03,28,13.50
2015,05,28,03,29,13.50
2015,05,28,03,30,13.40
2015,05,28,03,31,13.40
2015,05,28,03,32,13.40
2015,05,28,03,33,13.40
2015,05,28,03,34,13.40
2015,05,28,03,35,13.40
2015,05,28,03,36,13.40
2015,05,28,03,37,13.40
2015,05,28,03,38,13.30
2015,05,28,03,39,13.30
2015,05,28,03,40,13.30
2015,05,28,03,41,13.30
2015,05,28,03,42,13.30
2015,05,28,03,43,13.30
2015,05,28,03,44,13.30
2015,05,28,03,45,13.30
2015,05,28,03,46,13.20
2015,05,28,03,47,13.20
2015,05,28,03,48,13.20
2015,05,28,03,49,13.20
2015,05,28,03,50,13.20
2015,05,28,03,51,13.20
2015,05,28,03,52,13.20
2015,05,28,03,53,13.10
2015,05,28,03,54,13.10
2015,05,28,03,55,13.10
2015,05,28,03,56,13.10
2015,05,28,03,57,13.10
2015,05,28,03,58,13.10
2015,05,28,03,59,13.10
2015,05,28,04,00,13.10
2015,05,28,04,01,13.00
2015,05,28,04,02,13.00
2015,05,28,04,03,13.00
2015,05,28,04,04,13.00
2015,05,28,04,05,13.00
2015,05,28,04,06,13.00
2015,05,28,04,07,13.00
2015,05,28,04,08,13.00
2015,05,28,04,09,13.00
2015,05,28,04,10,13.00
2015,05,28,04,11,13.00
2015,05,28,04,12,13.00
2015,05,28,04,13,13.00
2015,05,28,04,14,13.00
2015,05,28,04,15,13.00
2015,05,28,04,16,13.00
2015,05,28,04,17,13.00
2015,05,28,04,18,13.00
2015,05,28,04,19,13.00
2015,05,28,04,20,12.90
2015,05,28,04,21,12.90
2015,05,28,04,22,12.90
2015,05,28,04,23,12.90
2015,05,28,04,24,12.90
2015,05,28,04,25,12.90
2015,05,28,04,26,12.90
2015,05,28,04,27,12.90
2015,05,28,04,28,12.90
2015,05,28,04,29,12.90
2015,05,28,04,30,12.90
2015,05,28,04,31,12.90
2015,05,28,04,32,12.90
2015,05,28,04,33,12.90
2015,05,28,04,34,12.90
2015,05,28,04,35,12.90
2015,05,28,04,36,12.80
2015,05,28,04,37,12.80
2015,05,28,04,38,12.80
2015,05,28,04,39,12.80
2015,05,28,04,40,12.80
2015,05,28,04,41,12.80
2015,05,28,04,42,12.80
2015,05,28,04,43,12.80
2015,05,28,04,44,12.80
2015,05,28,04,45,12.80
2015,05,28,04,46,12.70
2015,05,28,04,47,12.70
2015,05,28,04,48,12.70
2015,05,28,04,49,12.70
2015,05,28,04,50,12.70
2015,05,28,04,51,12.70
2015,05,28,04,52,12.70
2015,05,28,04,53,12.70
2015,05,28,04,54,12.70
2015,05,28,04,55,12.70
2015,05,28,04,56,12.70
2015,05,28,04,57,12.70
2015,05,28,04,58,12.70
2015,05,28,04,59,12.70
2015,05,28,05,00,12.70
2015,05,28,05,01,12.70
2015,05,28,05,02,12.70
2015,05,28,05,03,12.70
2015,05,28,05,04,12.70
2015,05,28,05,05,12.70
2015,05,28,05,06,12.70
2015,05,28,05,07,12.70
2015,05,28,05,08,12.70
2015,05,28,05,09,12.70
2015,05,28,05,10,12.60
2015,05,28,05,11,12.60
2015,05,28,05,12,12.60
2015,05,28,05,13,12.60
2015,05,28,05,14,12.60
2015,05,28,05,15,12.60
2015,05,28,05,16,12.60
2015,05,28,05,17,12.60
2015,05,28,05,18,12.60
2015,05,28,05,19,12.60
2015,05,28,05,20,12.60
2015,05,28,05,21,12.60
2015,05,28,05,22,12.60
2015,05,28,05,23,12.60
2015,05,28,05,24,12.60
2015,05,28,05,25,12.60
2015,05,28,05,26,12.60
2015,05,28,05,27,12.60
2015,05,28,05,28,12.60
2015,05,28,05,29,12.60
2015,05,28,05,30,12.60
2015,05,28,05,31,12.60
2015,05,28,05,32,12.50
2015,05,28,05,33,12.50
2015,05,28,05,34,12.50
2015,05,28,05,35,12.50
2015,05,28,05,36,12.50
2015,05,28,05,37,12.50
2015,05,28,05,38,12.50
2015,05,28,05,39,12.50
2015,05,28,05,40,12.50
2015,05,28,05,41,12.50
2015,05,28,05,42,12.50
2015,05,28,05,43,12.50
2015,05,28,05,44,12.50
2015,05,28,05,45,12.50
2015,05,28,05,46,12.50
2015,05,28,05,47,12.50
2015,05,28,05,48,12.50
2015,05,28,05,49,12.50
2015,05,28,05,50,12.50
2015,05,28,05,51,12.50
2015,05,28,05,52,12.50
2015,05,28,05,53,12.50
2015,05,28,05,54,12.50
2015,05,28,05,55,12.50
2015,05,28,05,56,12.50
2015,05,28,05,57,12.50
2015,05,28,05,58,12.50
2015,05,28,05,59,12.50
2015,05,28,06,00,12.50
2015,05,28,06,01,12.50
2015,05,28,06,02,12.50
2015,05,28,06,03,12.50
2015,05,28,06,04,12.50
2015,05,28,06,05,12.50
2015,05,28,06,06,12.50
2015,05,28,06,07,12.50
2015,05,28,06,08,12.50
2015,05,28,06,09,12.50
2015,05,28,06,10,12.50
2015,05,28,06,11,12.50
2015,05,28,06,12,12.60
2015,05,28,06,13,12.50
2015,05,28,06,14,12.50
2015,05,28,06,15,12.50
2015,05,28,06,16,12.50
2015,05,28,06,17,12.50
2015,05,28,06,18,12.50
2015,05,28,06,19,12.50
2015,05,28,06,20,12.50
2015,05,28,06,21,12.50
2015,05,28,06,22,12.50
2015,05,28,06,23,12.50
2015,05,28,06,24,12.50
2015,05,28,06,25,12.50
2015,05,28,06,26,12.50
2015,05,28,06,27,12.60
2015,05,28,06,28,12.60
2015,05,28,06,29,12.60
2015,05,28,06,30,12.60
2015,05,28,06,31,12.60
2015,05,28,06,32,12.60
2015,05,28,06,33,12.60
2015,05,28,06,34,12.60
2015,05,28,06,35,12.60
2015,05,28,06,36,12.60
2015,05,28,06,37,12.70
2015,05,28,06,38,12.70
2015,05,28,06,39,12.70
2015,05,28,06,40,12.70
2015,05,28,06,41,12.70
2015,05,28,06,42,12.70
2015,05,28,06,43,12.70
2015,05,28,06,44,12.70
2015,05,28,06,45,12.70
2015,05,28,06,46,12.80
2015,05,28,06,47,12.80
2015,05,28,06,48,12.80
2015,05,28,06,49,12.80
2015,05,28,06,50,12.90
2015,05,28,06,51,12.90
2015,05,28,06,52,13.00
2015,05,28,06,53,13.00
2015,05,28,06,54,13.00
2015,05,28,06,55,13.10
2015,05,28,06,56,13.10
2015,05,28,06,57,13.10
2015,05,28,06,58,13.10
2015,05,28,06,59,13.10
2015,05,28,07,00,13.20
2015,05,28,07,01,13.20
2015,05,28,07,02,13.20
2015,05,28,07,03,13.20
2015,05,28,07,04,13.20
2015,05,28,07,05,13.20
2015,05,28,07,06,13.20
2015,05,28,07,07,13.30
2015,05,28,07,08,13.30
2015,05,28,07,09,13.30
2015,05,28,07,10,13.30
2015,05,28,07,11,13.30
2015,05,28,07,12,13.40
2015,05,28,07,13,13.40
2015,05,28,07,14,13.40
2015,05,28,07,15,13.50
2015,05,28,07,16,13.50
2015,05,28,07,17,13.60
2015,05,28,07,18,13.60
2015,05,28,07,19,13.60
2015,05,28,07,20,13.60
2015,05,28,07,21,13.70
2015,05,28,07,22,13.70
2015,05,28,07,23,13.70
2015,05,28,07,24,13.70
2015,05,28,07,25,13.80
2015,05,28,07,26,13.80
2015,05,28,07,27,13.80
2015,05,28,07,28,13.90
2015,05,28,07,29,13.90
2015,05,28,07,30,13.90
2015,05,28,07,31,14.00
2015,05,28,07,32,14.00
2015,05,28,07,33,14.00
2015,05,28,07,34,14.10
2015,05,28,07,35,14.10
2015,05,28,07,36,14.10
2015,05,28,07,37,14.20
2015,05,28,07,38,14.20
2015,05,28,07,39,14.20
2015,05,28,07,40,14.20
2015,05,28,07,41,14.20
2015,05,28,07,42,14.30
2015,05,28,07,43,14.30
2015,05,28,07,44,14.30
2015,05,28,07,45,14.30
2015,05,28,07,46,14.30
2015,05,28,07,47,14.40
2015,05,28,07,48,14.40
2015,05,28,07,49,14.40
2015,05,28,07,50,14.50
2015,05,28,07,51,14.50
2015,05,28,07,52,14.60
2015,05,28,07,53,14.60
2015,05,28,07,54,14.60
2015,05,28,07,55,14.60
2015,05,28,07,56,14.70
2015,05,28,07,57,14.70
2015,05,28,07,58,14.70
2015,05,28,07,59,14.70
2015,05,28,08,00,14.70
2015,05,28,08,01,14.80
2015,05,28,08,02,14.80
2015,05,28,08,03,14.80
2015,05,28,08,04,14.90
2015,05,28,08,05,14.90
2015,05,28,08,06,14.90
2015,05,28,08,07,15.00
2015,05,28,08,08,15.00
2015,05,28,08,09,15.10
2015,05,28,08,10,15.10
2015,05,28,08,11,15.20
2015,05,28,08,12,15.20
2015,05,28,08,13,15.30
2015,05,28,08,14,15.30
2015,05,28,08,15,15.30
2015,05,28,08,16,15.40
2015,05,28,08,17,15.40
2015,05,28,08,18,15.50
2015,05,28,08,19,15.60
2015,05,28,08,20,15.60
2015,05,28,08,21,15.60
2015,05,28,08,22,15.70
2015,05,28,08,23,15.70
2015,05,28,08,24,15.70
2015,05,28,08,25,15.70
2015,05,28,08,26,15.70
2015,05,28,08,27,15.70
2015,05,28,08,28,15.70
2015,05,28,08,29,15.80
2015,05,28,08,30,15.80
2015,05,28,08,31,15.80
2015,05,28,08,32,15.80
2015,05,28,08,33,15.80
2015,05,28,08,34,15.80
2015,05,28,08,35,15.80
2015,05,28,08,36,15.90
2015,05,28,08,37,15.90
2015,05,28,08,38,15.90
2015,05,28,08,39,16.00
2015,05,28,08,40,16.00
2015,05,28,08,41,16.10
2015,05,28,08,42,16.10
2015,05,28,08,43,16.20
2015,05,28,08,44,16.20
2015,05,28,08,45,16.30
2015,05,28,08,46,16.30
2015,05,28,08,47,16.40
2015,05,28,08,48,16.40
2015,05,28,08,49,16.40
2015,05,28,08,50,16.50
2015,05,28,08,51,16.50
2015,05,28,08,52,16.50
2015,05,28,08,53,16.50
2015,05,28,08,54,16.50
2015,05,28,08,55,16.60
2015,05,28,08,56,16.60
2015,05,28,08,57,16.60
2015,05,28,08,58,16.70
2015,05,28,08,59,16.70
2015,05,28,09,00,16.80
2015,05,28,09,01,16.80
2015,05,28,09,02,16.90
2015,05,28,09,03,16.90
2015,05,28,09,04,17.00
2015,05,28,09,05,17.00
2015,05,28,09,06,17.10
2015,05,28,09,07,17.10
2015,05,28,09,08,17.10
2015,05,28,09,09,17.10
2015,05,28,09,10,17.10
2015,05,28,09,11,17.10
2015,05,28,09,12,17.20
2015,05,28,09,13,17.20
2015,05,28,09,14,17.30
2015,05,28,09,15,17.30
2015,05,28,09,16,17.40
2015,05,28,09,17,17.50
2015,05,28,09,18,17.50
2015,05,28,09,19,17.60
2015,05,28,09,20,17.70
2015,05,28,09,21,17.70
2015,05,28,09,22,17.80
2015,05,28,09,23,17.80
2015,05,28,09,24,17.90
2015,05,28,09,25,17.90
2015,05,28,09,26,17.80
2015,05,28,09,27,17.80
2015,05,28,09,28,17.80
2015,05,28,09,29,17.80
2015,05,28,09,30,17.80
2015,05,28,09,31,17.80
2015,05,28,09,32,17.80
2015,05,28,09,33,17.80
2015,05,28,09,34,17.80
2015,05,28,09,35,17.80
2015,05,28,09,36,17.90
2015,05,28,09,37,17.90
2015,05,28,09,38,17.90
2015,05,28,09,39,17.90
2015,05,28,09,40,17.90
2015,05,28,09,41,17.90
2015,05,28,09,42,17.90
2015,05,28,09,43,17.90
2015,05,28,09,44,17.90
2015,05,28,09,45,17.90
2015,05,28,09,46,18.00
2015,05,28,09,47,18.00
2015,05,28,09,48,18.00
2015,05,28,09,49,18.00
2015,05,28,09,50,18.00
2015,05,28,09,51,18.00
2015,05,28,09,52,18.10
2015,05,28,09,53,18.10
2015,05,28,09,54,18.10
2015,05,28,09,55,18.20
2015,05,28,09,56,18.20
2015,05,28,09,57,18.20
2015,05,28,09,58,18.30
2015,05,28,09,59,18.30
2015,05,28,10,00,18.30
2015,05,28,10,01,18.40
2015,05,28,10,02,18.40
2015,05,28,10,03,18.40
2015,05,28,10,04,18.40
2015,05,28,10,05,18.40
2015,05,28,10,06,18.40
2015,05,28,10,07,18.50
2015,05,28,10,08,18.50
2015,05,28,10,09,18.60
2015,05,28,10,10,18.60
2015,05,28,10,11,18.70
2015,05,28,10,12,18.70
2015,05,28,10,13,18.70
2015,05,28,10,14,18.80
2015,05,28,10,15,18.80
2015,05,28,10,16,18.80
2015,05,28,10,17,18.80
2015,05,28,10,18,18.90
2015,05,28,10,19,18.90
2015,05,28,10,20,19.00
2015,05,28,10,21,19.10
2015,05,28,10,22,19.20
2015,05,28,10,23,19.30
2015,05,28,10,24,19.40
2015,05,28,10,25,19.40
2015,05,28,10,26,19.50
2015,05,28,10,27,19.60
2015,05,28,10,28,19.60
2015,05,28,10,29,19.70
2015,05,28,10,30,19.70
2015,05,28,10,31,19.80
2015,05,28,10,32,19.80
2015,05,28,10,33,19.80
2015,05,28,10,34,19.80
2015,05,28,10,35,19.80
2015,05,28,10,36,19.70
2015,05,28,10,37,19.80
2015,05,28,10,38,19.80
2015,05,28,10,39,19.80
2015,05,28,10,40,19.80
2015,05,28,10,41,19.80
2015,05,28,10,42,19.80
2015,05,28,10,43,19.70
2015,05,28,10,44,19.80
2015,05,28,10,45,19.80
2015,05,28,10,46,19.80
2015,05,28,10,47,19.80
2015,05,28,10,48,19.90
2015,05,28,10,49,19.90
2015,05,28,10,50,19.90
2015,05,28,10,51,19.90
2015,05,28,10,52,19.90
2015,05,28,10,53,19.90
2015,05,28,10,54,20.00
2015,05,28,10,55,20.00
2015,05,28,10,56,20.10
2015,05,28,10,57,20.10
2015,05,28,10,58,20.00
2015,05,28,10,59,20.00
2015,05,28,11,00,20.00
2015,05,28,11,01,20.00
2015,05,28,11,02,20.10
2015,05,28,11,03,20.10
2015,05,28,11,04,20.20
2015,05,28,11,05,20.20
2015,05,28,11,06,20.10
2015,05,28,11,07,20.10
2015,05,28,11,08,20.00
2015,05,28,11,09,20.00
2015,05,28,11,10,20.00
2015,05,28,11,11,20.00
2015,05,28,11,12,20.00
2015,05,28,11,13,20.10
2015,05,28,11,14,20.10
2015,05,28,11,15,20.20
2015,05,28,11,16,20.30
2015,05,28,11,17,20.40
2015,05,28,11,18,20.40
2015,05,28,11,19,20.40
2015,05,28,11,20,20.50
2015,05,28,11,21,20.50
2015,05,28,11,22,20.50
2015,05,28,11,23,20.50
2015,05,28,11,24,20.50
2015,05,28,11,25,20.50
2015,05,28,11,26,20.50
2015,05,28,11,27,20.60
2015,05,28,11,28,20.50
2015,05,28,11,29,20.50
2015,05,28,11,30,20.40
2015,05,28,11,31,20.40
2015,05,28,11,32,20.40
2015,05,28,11,33,20.40
2015,05,28,11,34,20.40
2015,05,28,11,35,20.40
2015,05,28,11,36,20.50
2015,05,28,11,37,20.50
2015,05,28,11,38,20.50
2015,05,28,11,39,20.60
2015,05,28,11,40,20.60
2015,05,28,11,41,20.70
2015,05,28,11,42,20.80
2015,05,28,11,43,20.80
2015,05,28,11,44,20.80
2015,05,28,11,45,20.80
2015,05,28,11,46,20.80
2015,05,28,11,47,20.70
2015,05,28,11,48,20.70
2015,05,28,11,49,20.60
2015,05,28,11,50,20.60
2015,05,28,11,51,20.70
2015,05,28,11,52,20.70
2015,05,28,11,53,20.80
2015,05,28,11,54,20.90
2015,05,28,11,55,20.90
2015,05,28,11,56,21.00
2015,05,28,11,57,21.10
2015,05,28,11,58,21.10
2015,05,28,11,59,21.20
2015,05,28,12,00,21.20
2015,05,28,12,01,21.20
2015,05,28,12,02,21.20
2015,05,28,12,03,21.20
2015,05,28,12,04,21.20
2015,05,28,12,05,21.30
2015,05,28,12,06,21.30
2015,05,28,12,07,21.30
2015,05,28,12,08,21.40
2015,05,28,12,09,21.50
2015,05,28,12,10,21.60
2015,05,28,12,11,21.60
2015,05,28,12,12,21.70
2015,05,28,12,13,21.70
2015,05,28,12,14,21.60
2015,05,28,12,15,21.60
2015,05,28,12,16,21.60
2015,05,28,12,17,21.60
2015,05,28,12,18,21.50
2015,05,28,12,19,21.50
2015,05,28,12,20,21.50
2015,05,28,12,21,21.50
2015,05,28,12,22,21.60
2015,05,28,12,23,21.60
2015,05,28,12,24,21.60
2015,05,28,12,25,21.70
2015,05,28,12,26,21.70
2015,05,28,12,27,21.80
2015,05,28,12,28,21.80
2015,05,28,12,29,21.90
2015,05,28,12,30,21.90
2015,05,28,12,31,22.00
2015,05,28,12,32,22.10
2015,05,28,12,33,22.20
2015,05,28,12,34,22.20
2015,05,28,12,35,22.10
2015,05,28,12,36,22.10
2015,05,28,12,37,22.10
2015,05,28,12,38,22.20
2015,05,28,12,39,22.10
2015,05,28,12,40,22.10
2015,05,28,12,41,22.10
2015,05,28,12,42,22.00
2015,05,28,12,43,22.00
2015,05,28,12,44,22.00
2015,05,28,12,45,22.00
2015,05,28,12,46,22.10
2015,05,28,12,47,22.10
2015,05,28,12,48,22.20
2015,05,28,12,49,22.20
2015,05,28,12,50,22.20
2015,05,28,12,51,22.30
2015,05,28,12,52,22.30
2015,05,28,12,53,22.40
2015,05,28,12,54,22.50
2015,05,28,12,55,22.60
2015,05,28,12,56,22.70
2015,05,28,12,57,22.70
2015,05,28,12,58,22.80
2015,05,28,12,59,22.80
2015,05,28,13,00,22.70
2015,05,28,13,01,22.70
2015,05,28,13,02,22.70
2015,05,28,13,03,22.70
2015,05,28,13,04,22.70
2015,05,28,13,05,22.80
2015,05,28,13,06,22.80
2015,05,28,13,07,22.80
2015,05,28,13,08,22.80
2015,05,28,13,09,22.80
2015,05,28,13,10,22.80
2015,05,28,13,11,22.80
2015,05,28,13,12,22.80
2015,05,28,13,13,22.80
2015,05,28,13,14,22.80
2015,05,28,13,15,22.80
2015,05,28,13,16,22.80
2015,05,28,13,17,22.90
2015,05,28,13,18,22.90
2015,05,28,13,19,23.00
2015,05,28,13,20,23.00
2015,05,28,13,21,23.10
2015,05,28,13,22,23.10
2015,05,28,13,23,23.10
2015,05,28,13,24,23.00
2015,05,28,13,25,23.00
2015,05,28,13,26,23.10
2015,05,28,13,27,23.10
2015,05,28,13,28,23.10
2015,05,28,13,29,23.10
2015,05,28,13,30,23.10
2015,05,28,13,31,23.10
2015,05,28,13,32,23.20
2015,05,28,13,33,23.20
2015,05,28,13,34,23.10
2015,05,28,13,35,23.10
2015,05,28,13,36,23.10
2015,05,28,13,37,23.10
2015,05,28,13,38,23.10
2015,05,28,13,39,23.10
2015,05,28,13,40,23.10
2015,05,28,13,41,23.10
2015,05,28,13,42,23.10
2015,05,28,13,43,23.10
2015,05,28,13,44,23.10
2015,05,28,13,45,23.10
2015,05,28,13,46,23.20
2015,05,28,13,47,23.20
2015,05,28,13,48,23.30
2015,05,28,13,49,23.30
2015,05,28,13,50,23.50
2015,05,28,13,51,23.50
2015,05,28,13,52,23.50
2015,05,28,13,53,23.50
2015,05,28,13,54,23.40
2015,05,28,13,55,23.40
2015,05,28,13,56,23.40
2015,05,28,13,57,23.40
2015,05,28,13,58,23.40
2015,05,28,13,59,23.40
2015,05,28,14,00,23.40
2015,05,28,14,01,23.40
2015,05,28,14,02,23.40
2015,05,28,14,03,23.40
2015,05,28,14,04,23.40
2015,05,28,14,05,23.40
2015,05,28,14,06,23.50
2015,05,28,14,07,23.50
2015,05,28,14,08,23.60
2015,05,28,14,09,23.60
2015,05,28,14,10,23.70
2015,05,28,14,11,23.70
2015,05,28,14,12,23.70
2015,05,28,14,13,23.60
2015,05,28,14,14,23.60
2015,05,28,14,15,23.60
2015,05,28,14,16,23.60
2015,05,28,14,17,23.50
2015,05,28,14,18,23.50
2015,05,28,14,19,23.50
2015,05,28,14,20,23.40
2015,05,28,14,21,23.40
2015,05,28,14,22,23.40
2015,05,28,14,23,23.40
2015,05,28,14,24,23.30
2015,05,28,14,25,23.30
2015,05,28,14,26,23.30
2015,05,28,14,27,23.30
2015,05,28,14,28,23.30
2015,05,28,14,29,23.40
2015,05,28,14,30,23.50
2015,05,28,14,31,23.60
2015,05,28,14,32,23.80
2015,05,28,14,33,23.80
2015,05,28,14,34,23.80
2015,05,28,14,35,23.90
2015,05,28,14,36,24.00
2015,05,28,14,37,24.00
2015,05,28,14,38,24.10
2015,05,28,14,39,24.00
2015,05,28,14,40,24.00
2015,05,28,14,41,24.00
2015,05,28,14,42,23.90
2015,05,28,14,43,23.90
2015,05,28,14,44,23.90
2015,05,28,14,45,23.80
2015,05,28,14,46,23.80
2015,05,28,14,47,23.70
2015,05,28,14,48,23.70
2015,05,28,14,49,23.70
2015,05,28,14,50,23.70
2015,05,28,14,51,23.70
2015,05,28,14,52,23.70
2015,05,28,14,53,23.60
2015,05,28,14,54,23.40
2015,05,28,14,55,23.20
2015,05,28,14,56,23.20
2015,05,28,14,57,23.20
2015,05,28,14,58,23.10
2015,05,28,14,59,22.90
2015,05,28,15,00,22.90
2015,05,28,15,01,22.80
2015,05,28,15,02,22.80
2015,05,28,15,03,22.80
2015,05,28,15,04,22.80
2015,05,28,15,05,22.90
2015,05,28,15,06,22.90
2015,05,28,15,07,22.90
2015,05,28,15,08,22.90
2015,05,28,15,09,22.80
2015,05,28,15,10,22.80
2015,05,28,15,11,22.80
2015,05,28,15,12,22.70
2015,05,28,15,13,22.60
2015,05,28,15,14,22.50
2015,05,28,15,15,22.40
2015,05,28,15,16,22.30
2015,05,28,15,17,22.20
2015,05,28,15,18,22.10
2015,05,28,15,19,22.00
2015,05,28,15,20,22.00
2015,05,28,15,21,21.90
2015,05,28,15,22,21.90
2015,05,28,15,23,21.90
2015,05,28,15,24,22.00
2015,05,28,15,25,22.10
2015,05,28,15,26,22.10
2015,05,28,15,27,22.20
2015,05,28,15,28,22.20
2015,05,28,15,29,22.30
2015,05,28,15,30,22.40
2015,05,28,15,31,22.40
2015,05,28,15,32,22.60
2015,05,28,15,33,22.60
2015,05,28,15,34,22.80
2015,05,28,15,35,22.80
2015,05,28,15,36,22.80
2015,05,28,15,37,22.70
2015,05,28,15,38,22.70
2015,05,28,15,39,22.60
2015,05,28,15,40,22.50
2015,05,28,15,41,22.50
2015,05,28,15,42,22.40
2015,05,28,15,43,22.50
2015,05,28,15,44,22.50
2015,05,28,15,45,22.60
2015,05,28,15,46,22.60
2015,05,28,15,47,22.60
2015,05,28,15,48,22.70
2015,05,28,15,49,22.70
2015,05,28,15,50,22.60
2015,05,28,15,51,22.60
2015,05,28,15,52,22.60
2015,05,28,15,53,22.50
2015,05,28,15,54,22.50
2015,05,28,15,55,22.60
2015,05,28,15,56,22.70
2015,05,28,15,57,22.80
2015,05,28,15,58,22.80
2015,05,28,15,59,22.80
2015,05,28,16,00,22.70
2015,05,28,16,01,22.70
2015,05,28,16,02,22.70
2015,05,28,16,03,22.70
2015,05,28,16,04,22.70
2015,05,28,16,05,22.60
2015,05,28,16,06,22.60
2015,05,28,16,07,22.60
2015,05,28,16,08,22.60
2015,05,28,16,09,22.60
2015,05,28,16,10,22.50
2015,05,28,16,11,22.40
2015,05,28,16,12,22.40
2015,05,28,16,13,22.40
2015,05,28,16,14,22.50
2015,05,28,16,15,22.50
2015,05,28,16,16,22.50
2015,05,28,16,17,22.50
2015,05,28,16,18,22.50
2015,05,28,16,19,22.60
2015,05,28,16,20,22.60
2015,05,28,16,21,22.60
2015,05,28,16,22,22.60
2015,05,28,16,23,22.70
2015,05,28,16,24,22.80
2015,05,28,16,25,22.80
2015,05,28,16,26,22.80
2015,05,28,16,27,22.90
2015,05,28,16,28,22.90
2015,05,28,16,29,23.00
2015,05,28,16,30,22.90
2015,05,28,16,31,22.80
2015,05,28,16,32,22.80
2015,05,28,16,33,22.70
2015,05,28,16,34,22.70
2015,05,28,16,35,22.60
2015,05,28,16,36,22.70
2015,05,28,16,37,22.80
2015,05,28,16,38,22.80
2015,05,28,16,39,22.80
2015,05,28,16,40,22.80
2015,05,28,16,41,22.80
2015,05,28,16,42,22.80
2015,05,28,16,43,22.80
2015,05,28,16,44,22.70
2015,05,28,16,45,22.70
2015,05,28,16,46,22.70
2015,05,28,16,47,22.80
2015,05,28,16,48,22.80
2015,05,28,16,49,22.80
2015,05,28,16,50,22.80
2015,05,28,16,51,22.80
2015,05,28,16,52,22.70
2015,05,28,16,53,22.70
2015,05,28,16,54,22.70
2015,05,28,16,55,22.70
2015,05,28,16,56,22.70
2015,05,28,16,57,22.70
2015,05,28,16,58,22.70
2015,05,28,16,59,22.70
2015,05,28,17,00,22.60
2015,05,28,17,01,22.60
2015,05,28,17,02,22.40
2015,05,28,17,03,22.30
2015,05,28,17,04,22.30
2015,05,28,17,05,22.20
2015,05,28,17,06,22.20
2015,05,28,17,07,22.20
2015,05,28,17,08,22.10
2015,05,28,17,09,22.10
2015,05,28,17,10,22.10
2015,05,28,17,11,22.10
2015,05,28,17,12,22.10
2015,05,28,17,13,22.00
2015,05,28,17,14,22.10
2015,05,28,17,15,22.10
2015,05,28,17,16,22.10
2015,05,28,17,17,22.10
2015,05,28,17,18,22.20
2015,05,28,17,19,22.20